Regional Weather Roundup
Issued by NWS

Home | Current Version | Previous Version | Graphics & Text | Print | Product List | Glossary On
Versions: 1 2 3 4 5 6 7 8 9 10 11 12 13 14 15 16 17 18 19 20 21 22 23 24 25 26 27 28 29 30 31 32 33 34 35 36 37 38 39 40 41 42 43 44 45 46 47 48 49 50
000
ASUS43 KLOT 061103
RWRIL

ILLINOIS REGIONAL WEATHER ROUNDUP
NATIONAL WEATHER SERVICE CHICAGO/ROMEOVILLE IL
500 AM CST TUE DEC 06 2016

NOTE: "FAIR" INDICATES FEW OR NO CLOUDS BELOW 12,000 FEET WITH NO
SIGNIFICANT WEATHER AND/OR OBSTRUCTIONS TO VISIBILITY.

* THESE STATIONS ARE NOT UNDER NWS QUALITY CONTROL. THEY ALSO MAY NOT
  REPORT WEATHER SUCH AS PRECIPITATION OR FOG.

ILZ001-002-007-009-015-016-024-061200-
NORTHWEST ILLINOIS

CITY           SKY/WX    TMP DP  RH WIND       PRES   REMARKS
MOLINE         FOG       34  32  92 CALM      29.81S VSB 3/4
STERLING*      MIX PCPN  32  32 100 E7        29.82F VSB 1/4 WCI  26
$$

ILZ003-004-008-010-011-017-018-061200-
NORTH CENTRAL ILLINOIS

CITY           SKY/WX    TMP DP  RH WIND       PRES   REMARKS
ROCKFORD       FOG       33  33 100 CALM      29.83F VSB 3/4
FREEPORT*      FOG       32  31  99 CALM      29.83F VSB 1/2
ROCHELLE*      CLOUDY    31  31 100 SE5       29.82F FOG     WCI  27
$$

ILZ005-006-012>014-019>023-061200-
NORTHEAST ILLINOIS

CITY           SKY/WX    TMP DP  RH WIND       PRES   REMARKS
CHICAGO-OHARE  CLEAR     29  28  96 N6        29.80F FOG     WCI  23
CHICAGO-MIDWAY MOCLDY    32  29  88 E3        29.80F FOG
AURORA         FOG       22  19  89 N5        29.81F VSB<1/4 WCI  16
LANSING*       CLOUDY    31  31 100 NE5       29.80F FOG     WCI  26
WAUKEGAN       CLOUDY    37  34  89 E5        29.81F WCI  33
DUPAGE AIRPORT FOG       30  27  88 NE3       29.80F VSB 1/4
KANKAKEE*      CLOUDY    30  29  96 CALM      29.80F FOG
WHEELING       FOG       27  25  92 CALM      29.82F VSB 1/4
MORRIS*        FOG       22  21  94 N3        29.79F VSB 1/4
NORTHERLY ISL    N/A     37  34  89 E9          N/A  WCI  30
$$

LMZ740>746-061200-
SOUTHERN LAKE MICHIGAN

STATION/POSITION SKY/WX   TEMP    WIND        PRES    VSBY  WAVE
                          AIR SEA DIR/SP/G                  HT/PER
                          (F)     (DEG/KT/KT) (MB)    (MI)  (FT/S)
HARRISON CRIB              39     130/ 10/ 12   N/A
BURNHAM HARBOR             37     100/  9/ 11   N/A
CALUMET HARBOR             36      90/  9/ 11 1009.0F
BURNS HARBOR               33      90/  7/ 11 1010.2F
$$

ILZ025>027-034>036-040-047-049-050-058-095>099-061200-
WEST-CENTRAL ILLINOIS

CITY           SKY/WX    TMP DP  RH WIND       PRES   REMARKS
QUINCY         CLOUDY    35  34  96 NW7       29.79F FOG     WCI  29
GALESBURG*     FOG       33  33 100 CALM      29.80S VSB 1/2
MACOMB*        CLOUDY    34  34  99 W6        29.83R FOG     WCI  29
JACKSONVILLE*  CLOUDY    33  32  97 NW7       29.79S FOG     WCI  27
PITTSFIELD*    CLOUDY    36  34  94 NW10      29.79F WCI  28
$$

ILZ028>032-037-038-041>044-048-051>054-059>061-061200-
CENTRAL ILLINOIS

CITY           SKY/WX    TMP DP  RH WIND       PRES   REMARKS
PONTIAC        CLOUDY    31  31 100 CALM      29.80R FOG
BLOOMINGTON    CLOUDY    31  30  96 NE6       29.78S FOG     WCI  25
DECATUR        CLOUDY    35  33  92 NE8       29.74F FOG     WCI  29
PEORIA         FOG       32  32 100 N3        29.81R VSB 1/4
LACON*         CLOUDY    31  31 100 CALM      29.81R FOG
LINCOLN*       CLOUDY    34  33  99 NE3       29.77F FOG
SPRINGFIELD    CLOUDY    35  33  92 NW6       29.77S FOG     WCI  30
TAYLORVILLE    CLOUDY    35  34  96 N3        29.75F
$$

ILZ033-039-045-046-055>057-062-063-061200-
EAST-CENTRAL ILLINOIS

CITY           SKY/WX    TMP DP  RH WIND       PRES   REMARKS
CHAMPAIGN      CLOUDY    36  33  89 NE5       29.77S WCI  32
RANTOUL*       CLOUDY    35  34  94 E6        29.76F FOG     WCI  30
MATTOON        CLOUDY    36  33  89 N5        29.74F WCI  32
PARIS*         CLOUDY    37  35  94 N3        29.74F
$$

ILZ079-100>102-061200-
SOUTHWEST ILLINOIS

CITY           SKY/WX    TMP DP  RH WIND       PRES   REMARKS
ALTON          CLOUDY    37  35  94 NW3       29.75F FOG
BELLEVILLE     DRIZZLE   38  38  99 N3        29.72F
CAHOKIA*       CLOUDY    39  36  89 N5        29.74F
SPARTA*        CLOUDY    37  36  94 N5        29.73F FOG     WCI  34
$$

ILZ064>066-069>071-074>076-080>082-084>086-088>090-092>094-061200-
SOUTH-CENTRAL ILLINOIS

CITY           SKY/WX    TMP DP  RH WIND       PRES   REMARKS
CARBONDALE     CLOUDY    39  39 100 N8        29.71S FOG     WCI  33
CAIRO*         RAIN      40  40  99 N6        29.69S
EFFINGHAM*     CLOUDY    39  38  96 N3        29.74F
CENTRALIA*     CLOUDY    39  38  97 CALM      29.72F FOG
SALEM*         CLOUDY    40  37  90 N5        29.72F
METROPOLIS*    HVY RAIN  41  40  97 N3        29.66F
$$

ILZ067-068-072-073-078-083-087-091-061200-
SOUTHEAST ILLINOIS

CITY           SKY/WX    TMP DP  RH WIND       PRES   REMARKS
LAWRENCEVILLE  LGT RAIN  40  37  89 NE7       29.71F FOG
FLORA*         LGT RAIN  40  38  92 N5        29.73S
FAIRFIELD*     RAIN      39  38  96 N5        29.70F
HARRISBURG*    RAIN      40  39  99 NE7       29.70F
ROBINSON*      CLOUDY    38  36  92 N8        29.73F WCI  32
CARMI*         RAIN      40  40 100 CALM      29.70S
$$

ABBREVIATIONS USED IN REMARKS
   TC - TEMPERATURE IN CELSIUS
  WCI - WIND CHILL INDEX
   HX - HEAT INDEX
  VSB - VISIBILITY
$$




USA.gov is the U.S. government's official web portal to all federal, state and local government web resources and services.